Flight Track Log - Related Links

Times and Time Zones

All times are in EDT time to prevent confusion due to time zone crossing. See the SWA407 flight status page for this flight to view local times or setup timezone preferences in your user account.


Time Position Orientation Groundspeed Altitude Reporting Facility
EDT Latitude Longitude Course Direction KTS MPH feet Rate Location/Type
Sun 07:50:05 PM 28.4500 -81.3333 24° Northeast 147 169 1,100  Level Orlando TRACON
Sun 07:50:53 PM 28.4833 -81.3167 24° Northeast 199 229 2,800 2,333 Climbing Orlando TRACON
Sun 07:51:53 PM 28.5500 -81.3167 360° North 282 325 5,300 2,737 Climbing Orlando TRACON
Sun 07:52:47 PM 28.6167 -81.3167 360° North 285 328 8,000 2,667 Climbing Orlando TRACON
Sun 07:55:20 PM 28.8147 -81.3475 352° North 296 341 14,500 2,310 Climbing Jacksonville Center
Sun 07:56:20 PM 28.9047 -81.3606 353° North 301 346 16,200 1,700 Climbing Jacksonville Center
Sun 07:57:20 PM 29.0028 -81.3756 352° North 326 375 17,900 2,400 Climbing Jacksonville Center
Sun 07:58:20 PM 29.1117 -81.3928 352° North 365 420 21,000 3,050 Climbing Jacksonville Center
Sun 07:59:20 PM 29.2286 -81.4031 356° North 398 458 24,000 2,750 Climbing Jacksonville Center
Sun 08:00:20 PM 29.3478 -81.4178 354° North 420 483 26,500 2,600 Climbing Jacksonville Center
Sun 08:01:20 PM 29.4836 -81.4372 353° North 434 499 29,200 2,800 Climbing Jacksonville Center
Sun 08:02:20 PM 29.6008 -81.4667 348° North 434 499 32,100 1,900 Climbing Jacksonville Center
Sun 08:03:20 PM 29.7181 -81.4958 348° North 429 494 33,000 450 Climbing Jacksonville Center
Sun 08:04:20 PM 29.8356 -81.5303 346° North 429 494 33,000  Level Jacksonville Center
Sun 08:05:20 PM 29.9547 -81.5644 346° North 429 494 33,000  Level Jacksonville Center
Sun 08:06:20 PM 30.0700 -81.6108 341° North 434 499 33,000  Level Jacksonville Center
Sun 08:07:20 PM 30.1833 -81.6597 340° North 439 505 33,000  Level Jacksonville Center
Sun 08:08:20 PM 30.2967 -81.7136 338° Northwest 439 505 33,000  Level Jacksonville Center
Sun 08:09:20 PM 30.3972 -81.7606 338° Northwest 439 505 33,000  Level Jacksonville Center
Sun 08:10:20 PM 30.5106 -81.8172 337° Northwest 439 505 33,000  Level Jacksonville Center
Sun 08:11:20 PM 30.6383 -81.8808 337° Northwest 448 516 33,000  Level Jacksonville Center
Sun 08:12:20 PM 30.7494 -81.9353 337° Northwest 441 507 33,000  Level Jacksonville Center
Sun 08:13:20 PM 30.8500 -81.9875 336° Northwest 436 502 33,000  Level Jacksonville Center
Sun 08:14:20 PM 30.9631 -82.0397 338° Northwest 436 502 33,000  Level Jacksonville Center
Sun 08:15:20 PM 31.0761 -82.0944 337° Northwest 436 502 33,000  Level Jacksonville Center
Sun 08:16:20 PM 31.1894 -82.1519 337° Northwest 436 502 33,000  Level Jacksonville Center
Sun 08:17:20 PM 31.3003 -82.2069 337° Northwest 436 502 33,000  Level Jacksonville Center
Sun 08:18:20 PM 31.4111 -82.2622 337° Northwest 436 502 33,000  Level Jacksonville Center
Sun 08:19:20 PM 31.5222 -82.3150 338° Northwest 436 502 33,000  Level Jacksonville Center
Sun 08:20:20 PM 31.6331 -82.3631 340° North 436 502 33,000  Level Jacksonville Center
Sun 08:21:20 PM 31.7439 -82.4211 336° Northwest 436 502 33,000  Level Jacksonville Center
Sun 08:23:29 PM 31.9839 -82.5428 337° Northwest 439 505 33,000 -32 Level Atlanta Center
Sun 08:24:29 PM 32.0972 -82.5972 338° Northwest 439 505 32,900 -550 Descending Atlanta Center
Sun 08:25:29 PM 32.2106 -82.6544 337° Northwest 439 505 31,900 -1,000 Descending Atlanta Center
Sun 08:26:29 PM 32.3217 -82.7092 337° Northwest 439 505 30,900 -950 Descending Atlanta Center
Sun 08:27:29 PM 32.4392 -82.7689 337° Northwest 439 505 30,000 -1,050 Descending Atlanta Center
Sun 08:28:29 PM 32.5569 -82.8339 335° Northwest 439 505 28,800 -1,050 Descending Atlanta Center
Sun 08:29:29 PM 32.6286 -82.9314 311° West 405 466 27,900 -850 Descending Atlanta Center
Sun 08:30:29 PM 32.6942 -83.0244 310° West 398 458 27,100 -850 Descending Atlanta Center
Sun 08:31:29 PM 32.7681 -83.1372 308° West 416 479 26,200 -1,000 Descending Atlanta Center
Sun 08:32:29 PM 32.8442 -83.2525 308° West 416 479 25,100 -1,000 Descending Atlanta Center
Sun 08:33:29 PM 32.9094 -83.3436 310° West 416 479 24,200 -950 Descending Atlanta Center
Sun 08:34:29 PM 32.9789 -83.4519 307° West 411 473 23,200 -1,550 Descending Atlanta Center
Sun 08:35:29 PM 33.0439 -83.5531 308° West 406 467 21,100 -2,450 Descending Atlanta Center
Sun 08:36:29 PM 33.1175 -83.6619 309° West 393 452 18,300 -2,605 Descending Atlanta Center
Sun 08:36:45 PM 33.1333 -83.6833 311° West 383 441 17,800 -2,921 Descending Atlanta TRACON
Sun 08:37:45 PM 33.2000 -83.7833 309° West 373 429 14,600 -1,900 Descending Atlanta TRACON
Sun 08:38:45 PM 33.2667 -83.8833 309° West 364 419 14,000 -577 Descending Atlanta TRACON
Sun 08:39:29 PM 33.3100 -83.9494 308° West 366 421 13,600 -808 Descending Atlanta Center
Sun 08:40:29 PM 33.3706 -84.0464 307° West 366 421 12,600 -800 Descending Atlanta Center
Sun 08:41:29 PM 33.4353 -84.1408 309° West 366 421 12,000 -474 Descending Atlanta Center
Sun 08:41:45 PM 33.4500 -84.1667 304° West 368 423 12,000  Level Atlanta TRACON
Sun 08:42:45 PM 33.5167 -84.2667 309° West 361 415 12,000 -350 Level Atlanta TRACON
Sun 08:43:45 PM 33.5500 -84.3500 296° West 299 344 11,300 -1,150 Descending Atlanta TRACON
Sun 08:44:45 PM 33.5500 -84.4500 270° West 299 344 9,700 -1,750 Descending Atlanta TRACON
Sun 08:45:45 PM 33.5500 -84.5500 270° West 282 325 7,800 -1,650 Descending Atlanta TRACON
Sun 08:46:45 PM 33.5500 -84.6333 270° West 272 313 6,400 -1,050 Descending Atlanta TRACON
Sun 08:47:45 PM 33.5667 -84.7000 287° West 252 290 5,700 -900 Descending Atlanta TRACON
Sun 08:48:45 PM 33.6000 -84.6500 51° Northeast 177 204 4,600 -1,150 Descending Atlanta TRACON
Sun 08:49:45 PM 33.6167 -84.6000 68° East 173 199 3,400 -1,000 Descending Atlanta TRACON
Sun 08:50:45 PM 33.6167 -84.5500 90° East 153 176 2,600 -750 Descending Atlanta TRACON
Sun 08:51:45 PM 33.6167 -84.5000 90° East 118 136 1,900 -650 Descending Atlanta TRACON
Sun 08:52:45 PM 33.6167 -84.4667 90° East 121 139 1,300 -600 Descending Atlanta TRACON
Sun 08:54:00 PM 33.6333 -84.4167 64° Northeast  Level FlightAware Approximate

Login

Don't have an account? Register now (free) for customized features, flight alerts, and more!